Regional Weather Roundup
Issued by NWS

Home | Current Version | Previous Version | Text Only | Print | Product List | Glossary Off
Versions: 1 2 3 4 5 6 7 8 9 10 11 12 13 14 15 16 17 18 19 20 21 22 23 24 25 26 27 28 29 30 31 32 33 34 35 36 37 38 39 40 41 42 43 44 45 46 47 48 49 50

000
ASUS43 KTOP 272108
RWRKS

WEATHER ROUNDUP FOR KANSAS
NATIONAL WEATHER SERVICE GOODLAND KS
400 PM CDT THU APR 27 2017

NOTE:  "FAIR" INDICATES FEW OR NO CLOUDS BELOW 12,000 FEET WITH NO
SIGNIFICANT WEATHER AND/OR OBSTRUCTIONS TO VISIBILITY.

KSZ001>006-013>018-027>032-041>047-272200-
NORTHWEST KANSAS

CITY           SKY/WX    TMP DP  RH WIND       PRES   REMARKS
GOODLAND       PTSUNNY   61  38  42 SE22G32   29.47S
HAYS           LGT RAIN  50  44  80 E15       29.61S
HILL CITY      LGT RAIN  52  44  74 SE13G23   29.59S
RUSSELL        CLOUDY    53  44  71 E16       29.61F
$$

KSZ061>065-074>080-084>089-272200-
SOUTHWEST KANSAS

CITY           SKY/WX    TMP DP  RH WIND       PRES   REMARKS
DODGE CITY     CLOUDY    57  41  55 SE23G30   29.53F
ELKHART          N/A     69  41  36 W10         N/A
GARDEN CITY    MOSUNNY   64  40  41 SE29G38   29.47F
GREAT BEND     LGT RAIN  57  41  55 SE17      29.61F
LIBERAL        CLOUDY    72  42  34 S15       29.42F
PRATT          DRIZZLE   53  41  63 SE16G22   29.60F
$$

KSZ066>073-081>083-090>101-272200-
SOUTHEAST KANSAS

CITY           SKY/WX    TMP DP  RH WIND       PRES   REMARKS
CHANUTE        CLOUDY    59  43  55 MISG      29.70F
COFFEYVILLE    MOSUNNY   63  47  55 S9        29.72S
HUTCHINSON     CLOUDY    58  43  57 SE13      29.65F
MEDICINE LODGE   N/A     55  45  68 SE10      29.61F
NEWTON         LGT RAIN  56  45  66 SE12      29.68F
PARSONS        CLOUDY    61  44  53 S6        29.72F
WICHITA INTL   CLOUDY    59  43  55 SE10      29.67F
WICHITA JABRA  LGT RAIN  57  43  59 E14       29.66F
WICHITA MCCONL CLOUDY    59  42  53 S9        29.67F
WINFIELD       CLOUDY    62  42  47 SE16G22   29.66F
$$

KSZ007>012-019>026-033>040-048>060-102>105-272200-
NORTHEAST KANSAS

CITY           SKY/WX    TMP DP  RH WIND       PRES   REMARKS
CONCORDIA      CLOUDY    55  39  54 S15       29.69S
EMPORIA        CLOUDY    59  41  51 SE9       29.71F
LAWRENCE       CLOUDY    60  37  42 S6        29.72F
MANHATTAN      LGT RAIN  59  39  47 S9        29.71S
MARYSVILLE     CLOUDY    57  34  41 CALM      29.70
OLATHE IND     CLOUDY    59  39  47 SW6       29.73F
OLATHE EXE     PTSUNNY   58  41  53 S8        29.72F
SALINA         CLOUDY    60  40  47 E13       29.69F
TOPEKA BILLARD CLOUDY    61  39  44 S9        29.72S
TOPEKA FORBES  MOSUNNY   61  39  44 SW10      29.72S
$$



USA.gov is the U.S. government's official web portal to all federal, state and local government web resources and services.